Lapse_Rate
5.8 5.9 6.0 6.0 6.0 6.1 6.2 6.3 6.5 6.6 6.7 6.7 6.7 6.6 6.3 6.1 6.1 6.0 6.1 5.9 5.4 5.5 5.6 5.1 4.4 4.1 3.9 3.7 3.3 3.3 3.1 3.3 3.0 2.8 3.0 3.2 3.3 3.9 3.5 3.3 3.8 3.9 3.7 3.8 3.9
6.0 6.2 6.4 6.6 6.6 6.7 6.7 6.8 6.8 6.8 6.7 6.7 6.7 6.6 6.4 6.2 6.1 5.8 5.7 5.6 5.4 5.1 5.2 4.9 4.1 4.0 3.8 3.6 3.3 3.2 3.3 3.5 3.1 3.1 3.2 3.6 3.5 3.6 3.8 4.2 3.9 4.0 4.1 3.8 3.6
6.4 6.6 6.7 6.8 7.0 7.1 7.1 7.2 7.2 7.1 7.1 7.0 7.0 6.9 6.8 6.6 6.4 5.9 5.8 5.6 5.2 5.2 4.9 4.6 4.3 4.3 4.0 3.7 3.4 3.5 3.9 3.6 3.9 3.4 3.4 3.8 3.9 3.7 3.3 3.9 3.3 3.2 3.7 4.2 4.0
6.2 6.5 6.7 6.9 7.1 7.1 7.2 7.3 7.4 7.4 7.4 7.3 7.4 7.1 7.1 6.8 6.0 5.9 5.4 5.1 5.0 5.0 4.8 4.4 4.2 4.1 4.2 3.9 3.7 3.8 3.6 3.6 3.9 3.7 3.6 3.4 3.8 4.2 3.9 3.1 2.6 2.6 2.7 2.8 2.6
6.2 6.4 6.7 6.9 7.1 7.2 7.2 7.4 7.6 7.6 7.6 7.4 7.2 7.2 7.1 6.6 6.2 5.7 5.5 5.2 4.9 4.7 4.7 4.4 4.2 4.3 4.1 3.8 3.6 3.9 4.1 3.7 3.5 3.2 3.1 3.0 3.2 3.1 3.7 2.8 3.2 3.1 2.8 2.4 2.1
6.2 6.4 6.6 6.8 7.1 7.1 7.2 7.3 7.5 7.5 7.5 7.3 7.1 7.1 6.8 6.3 5.7 5.6 5.3 5.0 4.8 4.6 4.5 4.4 4.1 4.0 3.8 3.5 3.4 3.5 3.4 3.2 3.2 2.9 2.7 2.4 2.9 2.5 2.8 2.3 2.1 2.0 1.8 1.6 1.7
6.2 6.3 6.4 6.6 6.8 7.0 7.1 7.1 7.3 7.3 7.4 7.2 6.9 6.7 6.3 5.9 5.6 5.3 5.1 4.9 4.7 4.5 4.5 4.2 4.0 3.9 3.9 3.7 3.5 3.1 3.4 3.3 3.0 2.7 2.8 2.4 3.5 3.3 2.7 2.3 2.0 2.0 2.3 2.5 2.6
6.3 6.4 6.4 6.5 6.7 6.9 7.0 6.9 7.1 7.2 7.1 6.9 6.7 6.2 5.8 5.6 5.4 5.2 5.2 4.9 4.7 4.5 4.4 4.2 4.1 3.9 3.8 3.5 3.3 3.2 3.1 3.1 3.7 3.2 2.8 2.0 2.6 3.5 2.7 2.3 2.3 2.5 3.0 4.3 4.8
6.4 6.4 6.4 6.5 6.6 6.7 6.8 6.9 7.0 7.0 6.9 6.6 6.3 5.8 5.6 5.5 5.4 5.3 5.2 5.0 4.8 4.6 4.4 4.2 4.0 3.7 3.6 3.5 3.2 3.0 2.8 3.0 3.1 3.3 2.5 2.4 2.3 3.1 3.1 2.8 2.7 3.2 4.1 4.6 4.9
6.4 6.4 6.4 6.4 6.5 6.6 6.7 6.7 6.8 7.0 6.6 6.3 5.9 5.7 5.4 5.4 5.5 5.4 5.0 4.8 4.5 4.5 4.3 4.1 3.8 3.3 3.2 3.2 3.1 3.0 2.8 2.7 2.6 2.9 2.6 2.8 2.7 3.3 3.3 3.1 3.3 3.9 4.2 4.7 5.0
6.2 6.3 6.4 6.3 6.5 6.5 6.6 6.8 6.6 6.7 6.7 6.3 5.9 5.3 5.4 5.5 5.3 5.1 4.7 4.5 4.1 4.0 4.1 3.5 3.4 3.2 2.8 2.9 3.0 2.9 2.5 2.5 2.9 2.8 2.3 2.8 2.7 3.4 3.6 3.8 4.0 4.0 4.3 4.8 5.5
6.1 6.1 6.2 6.4 6.4 6.4 6.5 6.5 6.7 6.4 6.2 5.8 5.6 5.4 5.3 5.4 5.2 4.8 4.6 4.2 4.2 3.8 3.2 3.1 3.4 3.0 2.9 3.0 3.0 2.9 2.5 2.6 2.6 2.7 2.6 3.0 2.9 3.9 4.1 4.3 4.0 4.4 4.9 4.9 5.2
6.1 6.0 6.0 6.2 6.4 6.5 6.6 6.5 6.6 6.4 6.0 5.5 5.4 5.2 5.2 5.0 4.7 4.6 4.1 3.8 3.6 3.6 3.4 3.1 3.4 3.1 3.2 3.2 3.1 3.1 2.5 2.6 2.6 2.5 3.0 3.0 2.6 4.0 4.7 4.8 4.4 4.7 4.6 4.8 5.1
6.0 6.1 6.0 6.0 6.2 6.3 6.4 6.4 6.5 6.3 5.6 5.3 5.2 5.0 4.9 4.7 4.3 4.2 4.0 3.8 3.4 3.5 3.2 3.6 3.7 3.4 3.2 3.2 2.7 2.8 2.9 2.9 2.8 2.6 2.4 3.2 1.7 3.4 5.0 5.3 5.3 5.1 5.3 4.8 4.8
6.0 6.0 6.1 5.9 5.8 6.0 6.0 6.0 6.1 6.0 3.7 5.2 5.0 5.0 4.7 4.5 4.3 4.4 4.0 3.9 3.6 3.6 3.2 3.6 3.2 3.1 3.3 3.3 3.1 3.0 2.9 2.9 2.6 2.7 2.7 4.1 3.0 3.8 4.9 5.6 5.8 6.1 5.9 4.7 5.5
6.0 6.0 5.9 5.9 5.8 5.8 5.9 5.8 5.9 5.8 3.0 4.9 4.8 4.7 4.6 4.4 4.2 4.4 4.2 3.8 3.5 3.5 3.5 3.6 3.3 3.3 3.6 3.4 3.2 2.8 2.8 2.9 3.1 2.7 1.2 3.4 3.3 4.0 5.2 5.5 6.4 7.0 5.3 5.7 6.4
6.1 6.0 5.9 5.9 5.8 6.0 5.8 5.6 5.7 5.4 5.0 4.7 4.5 4.3 4.4 4.2 3.8 3.7 3.9 3.8 3.4 3.0 3.2 3.5 3.4 3.5 3.5 3.4 3.5 3.2 2.8 1.4 1.2 1.0 1.3 3.9 3.7 5.0 5.4 6.0 5.9 5.9 5.9 6.0 6.6
5.9 6.2 5.9 6.0 6.0 5.9 5.7 5.7 5.5 4.7 4.8 4.7 4.6 4.7 4.3 4.2 3.7 3.9 3.7 3.8 3.6 3.3 2.9 2.9 3.2 3.1 3.4 3.5 3.0 3.0 3.0 2.8 1.4 0.7 2.1 3.4 3.5 5.6 5.9 6.3 6.0 6.4 6.4 7.0 7.7
5.9 6.2 6.0 5.9 5.9 5.9 5.7 5.3 5.4 4.5 4.3 4.5 4.7 4.2 4.1 3.9 3.9 3.5 3.8 3.4 3.4 3.5 3.6 3.0 2.9 3.2 3.3 3.3 3.0 3.3 3.4 3.5 3.1 3.1 2.1 3.2 4.1 4.9 6.1 6.9 7.0 6.7 6.9 7.4 7.6
6.0 5.9 5.9 6.0 5.8 5.6 5.5 5.3 5.0 4.4 4.3 4.4 4.3 4.2 4.1 3.9 3.6 3.5 3.7 3.6 3.4 3.4 3.3 2.8 2.5 3.3 3.5 3.7 3.6 3.4 3.5 3.4 3.4 1.2 2.2 2.9 4.2 4.9 6.2 6.3 6.3 6.3 6.8 6.5 6.9
6.0 5.9 5.7 5.7 5.6 5.3 5.1 4.9 4.7 4.6 4.4 4.5 4.4 4.2 4.1 3.8 3.9 3.6 3.9 4.0 3.4 3.4 3.2 2.9 2.3 3.1 3.1 3.1 3.3 3.3 3.5 3.3 3.2 3.4 3.1 3.1 3.9 5.7 6.3 6.2 6.2 6.1 6.2 6.7 6.6
6.0 5.8 5.5 5.2 5.3 5.2 4.9 4.7 4.5 4.6 4.6 4.6 4.5 4.4 4.0 3.9 3.9 3.6 4.0 4.0 3.9 3.1 2.9 2.8 2.4 1.9 2.6 3.7 2.6 2.9 3.1 3.4 3.2 3.6 3.8 4.4 3.2 5.5 5.7 6.4 6.5 6.1 6.1 6.6 6.9
5.8 5.7 5.6 5.3 5.0 4.9 4.7 4.6 4.5 4.7 4.6 4.7 4.7 4.7 4.4 3.9 3.6 4.0 3.7 3.8 3.6 3.3 2.8 2.8 2.3 1.9 2.6 3.1 3.2 3.0 3.3 3.9 4.2 4.0 3.7 4.3 4.8 6.1 6.0 5.9 5.9 6.2 6.8 7.2 7.3
5.5 5.4 5.3 5.2 5.0 4.7 4.3 4.6 4.7 4.8 4.9 4.8 4.8 4.5 4.2 4.4 4.1 4.1 4.1 3.7 3.6 3.1 2.8 2.3 2.5 2.4 1.9 3.1 3.1 3.0 3.1 4.1 4.1 3.8 4.0 4.2 4.5 5.2 6.0 6.1 6.1 6.5 6.9 7.3 7.6
5.9 5.4 5.2 5.1 4.9 4.8 4.4 4.6 4.6 4.5 5.0 4.9 5.1 4.8 4.3 4.2 4.3 3.9 3.8 3.6 3.5 3.0 2.7 2.5 2.5 2.3 2.2 2.5 2.4 2.3 3.1 3.4 3.7 4.2 4.3 4.6 4.8 6.0 6.1 6.3 6.5 6.6 6.9 7.3 8.0
5.4 4.8 4.9 5.0 4.9 4.4 4.6 4.8 4.8 4.9 4.9 5.1 5.2 4.9 4.4 4.5 4.2 4.1 3.6 3.2 2.9 3.3 3.2 2.9 2.4 2.3 1.9 2.6 2.6 2.1 3.3 3.8 4.2 4.5 4.7 5.3 5.1 6.0 6.0 6.5 6.7 6.9 6.9 7.2 7.8
4.9 5.2 5.1 4.7 5.0 4.8 5.1 5.1 5.1 5.1 5.0 5.1 5.1 4.8 4.5 4.1 3.6 3.9 3.7 3.4 3.0 2.8 2.7 2.9 2.7 2.4 1.7 2.7 2.2 1.9 3.8 4.1 4.3 5.0 5.4 5.3 5.9 5.9 6.3 7.0 6.9 7.0 7.0 7.5 7.9
Wind_Speed
17 18 19 20 20 18 16 14 12 10 7 9 9 10 9 9 8 2 3 2 2 1 5 6 2 7 5 3 2 2 2 2 3 4 5 10 10 6 6 7 8 7 11 12 17
19 20 20 21 21 19 18 15 14 10 8 9 8 10 11 9 1 10 6 6 2 3 3 4 5 7 4 3 2 3 3 5 0 3 6 10 7 7 7 12 10 13 17 19 20
19 20 21 21 20 21 20 17 14 13 12 9 9 11 9 6 2 4 9 8 6 6 6 5 4 3 3 4 3 5 4 5 8 8 9 7 9 5 6 5 11 14 15 16 18
20 21 22 22 20 20 20 17 15 13 11 10 9 9 10 2 3 1 5 7 9 11 3 2 3 1 2 0 3 2 5 5 6 6 5 7 6 6 7 13 12 12 10 10 11
20 21 22 22 21 20 20 17 14 12 11 11 9 6 3 5 4 4 2 1 4 2 1 2 2 2 1 0 4 3 5 6 7 12 9 7 10 7 8 9 13 13 13 11 11
19 21 22 23 22 20 20 17 12 10 10 11 3 3 1 5 2 7 2 6 2 3 3 1 3 3 1 2 2 4 5 9 8 10 7 7 7 3 8 10 9 12 14 14 14
20 20 23 23 23 20 20 15 10 9 10 9 7 1 11 4 1 1 3 3 4 5 4 5 4 3 3 3 4 4 6 8 4 4 6 2 5 5 9 8 12 13 10 10 14
20 21 23 24 23 20 20 12 9 8 9 8 7 3 4 2 5 5 5 3 4 4 3 2 4 3 1 3 4 2 2 3 7 7 6 2 7 7 10 9 11 7 4 7 9
19 20 22 25 20 20 21 11 7 8 7 8 3 2 2 1 2 2 3 3 4 2 1 1 1 1 1 1 3 1 2 5 8 9 5 2 9 8 11 10 5 6 7 8 10
18 19 21 23 20 22 26 6 6 7 6 6 4 3 1 2 2 2 2 3 2 2 2 1 1 1 2 3 1 3 4 4 6 6 15 8 7 9 14 5 4 4 6 6 7
16 18 19 21 20 23 10 3 5 3 6 2 2 5 3 2 2 2 2 1 2 1 2 4 2 4 8 6 1 1 5 8 10 14 5 6 8 15 17 7 3 5 7 5 5
16 17 18 19 16 21 6 5 2 3 2 1 1 4 3 1 1 2 2 1 2 4 3 3 5 4 3 1 3 5 7 9 8 5 8 10 16 17 10 5 5 6 5 4 5
15 16 19 18 13 4 8 5 3 1 1 1 1 2 3 2 3 4 4 3 3 4 6 4 5 5 2 2 5 5 7 5 7 7 5 10 8 6 9 5 4 5 4 2 2
12 14 19 22 3 2 4 3 5 2 4 0 1 1 1 1 3 3 3 2 3 3 4 5 2 2 1 3 4 5 4 7 10 10 3 6 6 10 17 2 5 5 5 3 4
9 12 17 12 2 3 3 6 4 2 4 2 2 2 1 2 2 1 1 2 3 4 4 6 4 2 3 2 3 6 4 7 8 11 5 8 2 6 7 1 4 7 4 2 3
6 10 13 4 3 1 6 5 2 5 2 0 3 1 2 5 3 5 3 1 4 3 4 7 5 3 6 2 2 8 6 11 10 3 2 5 2 4 2 4 5 2 5 3 5
3 7 4 4 2 5 5 2 4 6 2 1 1 2 3 3 3 5 4 4 3 3 3 6 4 2 4 2 5 9 6 4 6 3 5 6 6 8 11 6 4 7 4 5 6
3 3 3 2 3 5 3 4 6 4 2 1 2 4 4 1 3 4 4 4 4 5 2 2 6 1 1 3 1 3 5 4 5 3 6 12 6 5 2 8 2 2 1 4 6
4 1 1 2 2 3 4 5 6 3 1 5 7 2 1 2 1 3 2 3 1 2 5 2 5 3 1 2 7 2 1 5 3 4 3 4 6 9 5 12 6 8 8 8 8
1 0 1 1 3 3 4 4 4 3 1 1 1 2 2 3 2 3 3 3 3 2 4 0 4 4 4 1 4 6 3 3 3 3 5 5 5 7 7 9 12 10 6 7 6
2 3 2 3 3 4 3 4 4 4 3 3 2 3 3 3 3 3 4 5 2 3 6 3 4 6 4 4 6 2 2 1 3 4 3 5 4 3 12 16 14 9 6 7 5
1 1 2 3 3 1 2 2 0 2 2 1 2 3 3 3 2 3 5 5 3 4 4 5 4 3 10 12 2 3 7 5 3 7 4 2 19 16 10 13 12 8 8 11 3
3 2 1 4 3 2 2 2 2 3 3 5 4 6 3 3 1 5 4 3 6 4 4 3 1 3 9 5 5 2 3 4 1 2 18 7 10 10 17 15 13 14 15 8 4
3 1 0 2 1 3 4 3 2 3 2 3 3 3 2 4 6 4 3 3 7 7 9 5 5 7 7 7 4 2 4 6 7 7 16 17 23 18 17 17 15 15 15 6 1
2 4 1 3 4 3 2 5 4 3 3 4 3 7 6 3 2 6 5 6 4 6 5 5 5 6 13 14 12 14 16 13 13 19 15 27 23 23 20 18 17 16 8 4 3
5 4 1 2 3 6 5 7 8 4 8 5 6 6 10 7 10 7 4 2 7 3 5 1 7 6 11 10 13 17 23 21 20 21 18 22 23 17 15 15 13 8 3 1 2
2 1 3 6 4 4 6 8 11 9 8 7 10 3 7 13 5 5 5 5 6 6 4 2 2 3 7 8 7 11 15 13 7 10 8 10 8 5 7 10 8 9 7 5 2
Wind_Direction
6 2 0 358 355 351 348 347 340 330 335 327 336 359 348 346 324 159 61 352 112 331 341 294 268 4 331 266 136 75 25 251 257 26 294 359 359 343 343 333 334 324 314 305 312
7 4 1 360 359 360 0 358 344 352 347 346 3 351 349 347 260 60 355 120 64 357 342 41 15 351 340 306 42 120 191 232 29 3 331 334 352 331 349 326 312 317 309 311 314
7 3 2 1 1 359 360 359 354 359 354 7 344 337 338 328 162 59 57 55 20 332 40 64 41 19 337 17 355 320 216 319 314 335 356 341 322 321 303 279 281 284 292 295 294
6 3 1 359 357 356 353 348 353 352 349 343 335 340 328 241 84 147 37 17 10 5 58 96 24 3 209 293 321 357 294 307 312 325 324 298 296 294 256 264 272 272 274 284 286
6 2 360 357 354 351 349 345 340 345 347 338 319 341 2 70 67 188 270 293 303 331 18 191 211 283 213 187 351 269 284 281 294 297 284 279 270 261 267 289 302 297 295 283 280
2 359 357 357 353 347 347 345 344 342 351 352 18 1 60 87 227 153 287 315 324 322 186 91 2 319 327 308 244 346 320 295 288 276 251 249 263 251 291 287 293 291 287 279 274
359 357 355 355 352 345 344 346 354 346 349 359 19 263 58 115 5 329 201 62 13 30 8 39 11 24 3 321 347 336 315 315 262 267 222 52 309 267 273 296 290 292 312 344 10
358 358 354 350 350 343 338 337 344 335 333 334 332 354 89 285 328 26 3 126 75 41 49 24 11 330 129 322 307 205 166 314 326 359 296 37 281 288 284 297 298 312 44 26 11
357 356 354 349 346 341 335 322 323 324 300 291 323 118 86 314 60 339 7 26 112 158 174 31 27 242 121 68 340 166 262 313 327 320 301 329 285 275 286 302 283 47 30 18 4
354 352 352 350 342 340 331 281 297 325 285 265 268 39 329 93 80 350 73 352 314 156 302 214 221 35 318 85 239 298 312 289 278 290 307 285 289 293 293 286 202 102 76 39 10
352 348 351 350 344 344 344 34 17 18 25 72 20 101 66 65 108 237 109 280 294 308 251 206 83 239 262 213 209 302 279 275 281 286 304 287 292 300 296 272 195 80 57 19 9
352 345 348 346 348 350 29 70 150 209 2 46 51 96 77 53 297 153 56 118 204 257 266 314 253 219 152 11 315 280 280 285 290 316 332 308 296 282 289 259 190 117 76 33 342
350 346 341 341 333 48 78 93 298 332 135 119 53 41 122 47 317 191 139 309 261 291 299 217 253 185 151 345 318 291 278 288 303 321 280 309 287 257 293 248 142 126 143 187 268
351 344 339 338 25 155 57 4 342 343 88 305 214 121 152 241 331 112 161 89 316 274 319 285 250 110 308 281 279 297 312 335 326 338 296 50 284 331 295 4 166 171 206 169 21
349 344 339 345 287 43 313 336 294 62 49 221 142 184 227 177 248 212 83 116 236 301 70 263 312 345 304 247 9 248 334 304 293 283 330 296 248 265 286 6 179 219 164 101 351
349 339 345 36 50 328 335 329 50 45 289 230 135 190 227 191 220 149 174 176 249 292 235 242 263 259 212 23 297 271 327 308 284 212 3 281 245 274 300 268 200 209 61 23 348
345 338 7 311 172 321 342 48 32 94 227 184 263 200 318 230 233 176 186 191 211 358 342 315 287 90 105 41 8 52 42 327 352 6 220 350 357 254 297 278 19 63 18 346 340
315 317 283 112 335 347 58 52 73 264 5 203 249 276 237 76 30 359 310 287 267 165 53 94 334 13 121 144 163 290 152 155 267 272 278 312 241 250 49 59 66 129 305 322 320
321 307 217 226 349 39 81 50 187 213 296 343 316 208 299 62 91 17 267 255 254 105 162 93 270 345 160 303 127 272 254 209 261 284 3 254 291 313 28 6 18 341 2 352 345
41 284 137 250 26 69 75 175 149 106 94 208 286 331 274 174 175 60 269 283 125 95 111 192 324 276 308 108 263 167 190 20 5 327 287 273 275 249 336 319 338 321 332 323 331
66 24 265 340 68 53 145 193 131 131 146 157 260 304 317 304 140 170 248 297 92 111 89 127 136 289 19 213 204 16 241 121 146 179 251 292 238 226 334 320 314 319 316 313 339
113 6 272 43 55 113 195 151 280 155 137 137 125 219 224 308 267 226 235 213 82 115 173 211 171 231 231 255 277 161 197 151 159 278 224 256 282 268 272 309 310 331 322 308 307
174 211 311 94 165 224 261 178 199 165 187 178 224 207 167 187 284 213 247 183 144 140 173 176 257 341 326 5 9 129 201 168 171 106 259 251 257 306 311 299 301 318 313 302 317
107 214 319 47 237 178 157 193 180 209 245 235 227 227 146 234 207 249 239 264 177 180 202 177 214 181 224 220 154 275 255 239 221 256 281 254 282 290 289 297 302 303 303 267 291
135 223 215 181 233 168 123 153 172 227 213 211 288 205 178 224 240 235 255 257 274 251 234 184 238 217 246 266 270 274 267 255 233 252 251 281 280 283 288 291 290 288 275 275 23
149 156 20 168 116 124 180 204 203 179 171 226 221 202 200 195 199 203 205 188 233 305 169 301 268 268 274 259 258 269 267 270 261 259 255 261 271 276 282 286 286 274 213 251 19
145 54 138 159 159 158 201 191 206 157 232 227 208 195 239 241 223 237 207 204 224 172 190 180 154 23 284 263 304 277 253 253 250 255 233 259 261 287 302 307 298 279 250 158 88